Location: Newark
(15.4608°S, 41.1635°W)
Time: 00:41:01
(UTC+00:00)

Transit 2A - Visible Passes

Search period start: 31 July 2021 00:00
Search period end: 10 August 2021 00:00
Orbit: 598 x 960 km, 66.7° (Epoch: 30 July)

Date Brightness Start Highest point End Pass type
(mag) Time Alt. Az. Time Alt. Az. Time Alt. Az.
31 Jul 6.2 07:17:03 48° NNE 07:17:03 48° NNE 07:20:12 10° NNE visible
01 Aug 8.0 06:44:49 17° NE 06:44:49 17° NE 06:45:55 10° NE visible
01 Aug 8.9 21:03:27 10° W 21:07:12 16° WSW 21:10:56 10° SSW visible
